Simultaneous Nadir Overpasses (SNOs) Predictions

Prediction of SNOs between NOAA-19 and TERRA Satellite Orbit:

Table of predicted SNOs for the next 14.0 days since TLE Epoch: 6/12/2021
Index Date (NOAA-19) Time (NOAA-19) Lat,Lon (NOAA-19) SZA (NOAA-19 ) Date (TERRA) Time (TERRA) Lat,Lon (TERRA) SZA (TERRA ) Distance(km) Time Diff (sec)
1 06/13/2021 09:19:32 80.27, 73.43 58.72 06/13/2021 09:19:36 80.28, 73.60 58.74 3.26 4
2 06/15/2021 14:52:37 -80.28, 170.20 121.39 06/15/2021 14:53:19 -80.27, 170.08 121.39 2.31 42
3 06/15/2021 15:43:41 80.27, -22.37 58.62 06/15/2021 15:42:45 80.27, -22.28 58.61 1.86 56
4 06/17/2021 20:25:51 80.28, -93.14 58.54 06/17/2021 20:27:00 80.29, -93.16 58.57 0.74 69
5 06/17/2021 21:16:47 -80.28, 74.18 121.46 06/17/2021 21:16:28 -80.26, 74.20 121.49 2.31 19
6 06/20/2021 02:50:00 80.28, 171.00 58.51 06/20/2021 02:50:09 80.28, 170.93 58.50 1.34 9
7 06/22/2021 08:23:06 -80.28, -92.17 121.50 06/22/2021 08:23:51 -80.30, -92.30 121.47 3.41 45
8 06/22/2021 09:14:09 80.28, 75.11 58.51 06/22/2021 09:13:18 80.26, 74.99 58.46 2.69 51
9 06/24/2021 13:56:20 80.32, 3.92 58.50 06/24/2021 13:57:33 80.28, 4.05 58.51 5.23 73



Historial Predications of SNOs between NOAA-19 and TERRA
